Location: *
(49.7115°N, 15.0136°E)
Time: 09:33:28
(UTC+00:00)

STARLINK-27 - Pass Details

Date: 27 February 2020
Orbit: 529 x 530 km, 53.0° (Epoch: 04 April)

Event Time Altitude Azimuth Distance (km) Brightness Sun altitude
Rises 17:17:33 0° 268° (W) 2,668 9.8 -7.1°
Reaches altitude 10° 17:19:48 10° 272° (W) 1,780 8.0 -7.5°
Maximum altitude 17:23:47 56° 352° (N) 639 4.0 -8.1°
Enters shadow 17:27:39 11° 71° (ENE) 1,744 5.6 -8.8°
